Wetbulb
58.19 58.09 57.53 57.16 57.30 56.72 57.72 58.15 57.55 57.37 56.84 56.39 56.43 56.67 56.87 57.10 56.28 53.92 48.72 52.27 53.93 59.67 58.23 51.17 49.95 49.56 48.75 46.07 45.78 44.55 38.86 35.54 38.37 43.79 46.47 50.89 50.19 49.40 54.94 53.81 54.15 53.71 55.74 58.82 58.71
57.93 57.95 58.10 58.46 57.23 55.99 56.04 57.63 57.21 57.11 56.69 56.24 56.33 56.43 56.85 56.70 53.00 50.63 56.15 60.19 60.59 60.29 50.56 49.01 46.59 47.84 45.13 43.52 45.10 43.10 38.72 39.02 44.01 46.82 49.50 51.99 51.89 52.21 52.70 51.91 50.51 50.80 54.92 57.32 56.39
57.86 58.03 58.16 57.81 57.87 56.56 55.49 56.50 56.78 56.81 56.45 56.39 56.25 56.57 56.44 55.36 49.97 49.21 60.43 60.97 61.58 58.84 51.35 50.32 49.76 47.62 44.47 44.17 44.23 41.21 40.08 41.98 43.76 47.15 46.10 47.25 47.63 50.53 51.09 48.68 50.65 50.92 52.41 53.85 54.13
57.70 57.64 57.41 57.19 57.35 56.94 55.94 56.30 56.58 56.37 55.83 55.95 56.41 56.52 56.41 52.33 40.31 49.23 63.33 62.24 62.14 52.77 51.61 49.93 48.53 46.40 45.03 44.30 44.22 40.67 42.50 42.45 42.95 44.90 45.18 47.68 46.40 50.88 47.09 50.43 54.43 54.88 54.49 53.33 52.39
56.74 56.70 56.89 56.89 56.52 56.97 56.56 56.08 56.08 56.20 55.34 55.89 56.15 56.50 52.30 48.80 48.42 56.27 62.86 61.93 54.56 52.44 50.06 49.59 48.03 47.01 43.82 42.63 42.47 40.14 42.05 42.86 43.16 43.07 44.40 44.31 43.89 49.44 42.20 52.54 53.28 54.61 53.76 52.51 52.21
56.40 56.30 56.40 56.42 56.54 56.48 56.16 55.48 55.11 55.34 54.59 55.64 56.03 56.49 49.58 43.05 52.20 56.91 57.41 54.92 53.50 52.12 50.81 50.22 49.47 49.80 45.52 43.38 41.91 43.09 42.23 41.71 41.58 41.73 42.27 42.74 41.38 42.22 44.43 52.00 51.64 53.07 52.13 51.95 53.20
56.38 56.30 56.08 56.12 56.08 55.90 55.74 55.13 54.91 54.91 55.27 55.52 56.02 54.46 50.88 49.37 53.35 53.84 54.25 54.61 53.87 53.19 50.33 51.62 51.54 47.92 46.27 43.82 43.59 41.82 39.64 42.07 42.14 41.65 41.58 42.88 38.82 39.39 48.89 52.74 51.66 51.51 52.03 51.40 51.70
56.66 56.24 55.38 55.24 55.16 55.09 54.97 54.63 54.39 54.97 55.52 55.72 56.00 52.20 47.37 54.93 54.32 55.40 53.08 50.91 53.83 53.71 52.16 51.96 52.52 49.18 45.56 45.10 43.86 40.75 39.35 35.65 39.93 41.56 41.36 40.67 35.24 39.56 50.76 52.12 50.02 50.92 51.50 51.10 51.81
56.20 55.70 54.79 54.37 54.25 54.04 54.00 53.84 54.18 54.81 55.24 55.40 50.46 50.44 46.43 55.39 52.16 52.75 51.36 50.46 51.75 51.76 51.57 52.60 50.33 45.66 44.09 39.65 37.28 38.08 35.09 35.14 38.27 41.50 40.62 40.48 37.29 40.28 48.83 50.26 46.85 46.96 48.78 49.64 49.53
55.64 55.32 54.67 54.22 54.00 53.60 53.11 53.89 54.58 53.79 53.69 54.70 54.28 46.80 49.14 47.63 52.22 50.44 49.79 51.20 50.29 50.31 48.66 48.25 44.08 41.37 39.74 37.94 32.52 34.56 34.63 36.21 35.81 38.70 40.79 38.19 37.18 41.14 42.11 46.76 45.83 46.36 46.77 47.28 47.54
55.32 55.03 54.59 54.26 53.88 53.37 51.43 48.42 46.27 45.41 49.16 45.60 46.23 46.33 49.97 52.79 50.51 47.60 49.22 50.21 49.43 47.68 42.51 44.68 40.62 36.69 39.03 38.70 39.00 38.14 36.06 34.94 36.01 39.66 38.58 37.93 38.03 40.61 43.50 44.66 44.62 44.90 45.61 46.39 47.09
54.91 54.63 54.34 54.14 53.87 53.67 49.17 46.56 47.46 49.39 44.97 50.17 50.09 50.59 52.21 51.87 46.98 47.49 50.79 46.11 45.61 41.29 43.79 41.47 37.18 40.64 43.39 42.39 41.37 39.41 36.82 35.48 38.07 40.70 40.17 37.86 37.68 40.72 43.15 43.72 44.35 44.41 44.35 45.10 46.10
54.39 54.24 54.16 53.61 53.51 50.83 47.55 50.26 55.56 53.22 45.66 47.73 49.98 48.24 47.98 51.27 46.14 45.12 48.89 46.99 43.48 41.33 40.49 38.49 39.93 44.36 43.50 41.91 41.36 39.48 37.54 36.11 36.90 38.72 39.77 37.61 35.31 38.30 42.53 44.83 46.00 45.82 45.64 45.87 46.19
54.02 53.57 53.02 52.79 49.21 48.91 47.67 51.96 56.60 51.82 37.07 41.21 45.17 47.78 48.87 49.01 44.97 48.21 48.29 46.85 44.16 40.47 41.03 40.68 43.94 42.89 41.51 40.62 40.43 36.54 41.06 40.00 38.23 34.90 32.00 36.40 29.47 34.80 38.98 41.32 43.55 44.88 44.47 44.91 46.30
53.80 53.55 52.76 52.57 48.78 51.24 52.84 58.84 56.84 48.95 25.60 42.25 44.55 48.47 47.02 45.55 44.99 45.20 48.18 47.33 41.68 41.47 41.23 38.93 40.38 41.11 40.35 39.66 41.13 39.09 42.14 40.17 38.32 35.21 32.72 33.84 31.60 32.83 40.15 39.76 41.79 43.03 44.33 45.17 46.19
53.51 53.41 52.75 51.03 48.76 53.20 57.25 52.86 49.07 37.25 27.84 39.96 44.72 43.17 43.39 44.59 44.16 44.75 47.17 48.99 45.96 43.17 42.58 40.84 43.22 42.14 40.71 42.75 42.45 42.79 41.26 39.66 37.70 35.08 28.41 33.43 32.10 30.54 35.32 39.33 41.47 43.00 44.69 45.85 46.13
52.92 53.19 52.12 52.65 52.75 57.16 53.99 46.45 35.48 29.78 41.88 38.16 39.91 42.42 42.24 40.86 42.44 43.15 42.62 41.18 38.60 36.04 35.55 40.49 40.49 42.73 43.62 40.41 41.83 40.93 36.58 28.21 27.78 26.46 27.12 35.64 33.04 33.76 38.52 41.25 43.54 43.20 44.39 45.63 46.10
52.30 52.22 51.79 52.94 56.11 55.54 47.94 40.16 30.21 38.52 38.68 41.56 41.29 41.24 39.71 41.52 41.40 41.97 40.28 38.30 41.26 39.20 36.04 34.33 32.66 39.43 43.12 40.01 38.22 37.57 36.36 29.26 27.17 24.90 27.40 35.20 30.73 35.22 41.00 43.32 44.76 45.39 45.13 45.18 45.00
52.03 49.89 52.22 56.46 53.96 51.37 43.21 31.35 33.46 38.68 41.90 41.19 41.23 38.45 37.97 41.16 41.49 40.39 37.86 37.98 39.01 39.85 36.93 34.36 34.61 41.07 41.81 42.27 41.15 37.72 32.79 36.68 30.83 28.38 24.92 29.51 34.35 39.62 41.31 41.62 43.01 43.22 44.07 44.04 45.28
51.41 50.99 52.37 56.66 54.52 49.56 39.19 35.33 40.66 45.79 43.69 42.55 36.86 39.57 36.00 38.51 38.57 38.47 37.98 41.29 39.87 41.21 41.87 39.59 34.03 39.19 40.95 42.30 41.87 38.23 40.69 32.35 29.66 23.57 24.10 26.86 29.83 32.04 37.32 39.67 41.72 42.09 42.21 42.94 42.75
48.55 45.96 49.88 55.02 48.65 42.92 34.02 37.01 44.79 48.26 46.14 42.20 40.17 38.74 39.07 38.28 39.05 37.87 38.38 41.15 42.28 42.31 42.29 39.10 36.06 35.30 39.27 36.36 35.39 36.99 34.96 33.86 33.56 28.63 23.78 20.36 27.40 36.31 39.95 41.70 41.69 41.93 43.65 41.58 41.47
44.69 39.90 53.31 47.98 39.74 38.32 38.42 43.55 45.84 44.14 45.88 45.41 44.40 41.81 39.74 39.86 39.21 38.60 38.98 40.70 43.92 43.15 38.03 39.01 34.92 29.75 33.91 38.39 40.08 37.38 35.96 34.19 25.08 26.98 25.92 24.85 26.37 37.85 39.16 41.88 42.49 41.29 41.54 40.65 40.50
46.59 48.66 54.16 46.42 33.84 33.35 39.94 43.63 45.00 43.13 43.42 43.38 42.59 43.87 43.50 40.82 37.54 39.57 40.42 43.86 42.71 41.63 39.22 39.39 33.54 27.81 31.63 35.26 37.95 35.20 36.82 35.19 32.02 29.29 27.26 20.79 25.49 39.08 39.67 39.66 40.51 39.20 39.44 39.76 39.81
47.01 41.75 45.62 45.52 40.51 38.88 39.43 40.62 41.50 45.48 44.59 44.94 43.75 44.58 42.30 40.22 41.92 39.14 40.10 42.98 42.56 41.50 44.31 42.10 35.28 31.65 28.53 30.23 33.62 31.15 34.54 35.08 33.33 25.57 27.14 26.97 29.26 34.83 36.98 37.99 38.19 38.64 39.16 39.17 39.37
45.90 41.82 44.50 38.73 40.87 38.00 41.51 42.18 41.56 40.47 44.41 44.93 42.52 42.93 41.02 37.09 38.15 37.88 40.82 41.11 41.76 43.36 41.51 38.52 32.64 33.27 32.57 33.42 33.29 32.19 32.40 34.14 32.88 31.76 28.79 29.43 30.41 34.15 37.88 37.75 37.97 39.17 39.17 39.25 39.22
47.36 42.41 40.93 38.90 43.82 41.55 39.65 41.39 41.79 42.34 42.87 41.06 41.48 41.89 41.38 39.01 40.12 38.58 40.63 38.65 36.51 40.27 38.42 38.79 31.20 31.54 30.28 33.09 33.01 31.20 32.66 32.67 32.85 31.79 32.53 31.72 32.11 37.81 38.34 39.20 38.90 39.11 39.08 38.50 38.77
48.74 48.46 43.98 38.53 38.87 38.66 39.52 42.24 43.12 44.83 44.19 44.33 43.36 40.86 37.97 40.77 42.12 42.01 41.64 41.50 40.67 39.22 37.07 34.48 30.58 28.00 25.06 28.69 27.35 23.56 30.50 32.17 32.76 34.29 33.52 29.99 34.24 37.44 36.92 38.38 38.43 38.14 38.58 37.98 38.05
MSLP
1017.66 1017.46 1017.59 1017.15 1016.99 1017.04 1016.93 1017.05 1016.74 1016.37 1016.21 1016.09 1016.04 1015.76 1015.60 1015.25 1014.75 1014.55 1013.23 1010.85 1010.68 1010.48 1010.75 1011.14 1011.58 1011.59 1011.61 1011.57 1011.37 1011.73 1012.43 1013.51 1012.88 1013.14 1012.28 1011.79 1012.24 1012.84 1013.06 1013.39 1013.54 1014.25 1014.94 1015.62 1016.90
1017.47 1017.17 1017.35 1016.97 1016.51 1016.77 1016.79 1016.80 1016.47 1016.17 1016.03 1015.95 1015.83 1015.69 1015.48 1015.25 1014.79 1013.14 1009.74 1009.66 1010.03 1010.15 1010.68 1011.00 1011.33 1011.40 1011.51 1011.40 1011.23 1011.38 1012.41 1012.35 1011.43 1010.93 1010.76 1011.00 1011.70 1012.74 1013.36 1013.94 1014.67 1015.18 1015.60 1016.13 1017.41
1017.07 1016.94 1017.07 1016.38 1016.19 1016.49 1016.58 1016.52 1016.23 1015.95 1015.84 1015.79 1015.73 1015.60 1015.41 1015.26 1014.44 1010.65 1008.74 1009.01 1009.63 1009.92 1010.29 1010.76 1010.91 1011.22 1011.25 1011.17 1011.23 1011.47 1011.57 1011.13 1010.26 1010.58 1010.55 1011.38 1012.39 1013.07 1013.33 1014.27 1014.44 1015.03 1016.01 1016.87 1017.57
1016.85 1016.64 1016.73 1015.92 1015.87 1016.07 1016.24 1016.23 1016.00 1015.86 1015.72 1015.64 1015.64 1015.43 1015.31 1015.24 1012.94 1009.45 1008.80 1008.77 1009.57 1010.11 1010.29 1010.69 1010.96 1011.10 1010.93 1010.75 1010.51 1010.77 1010.32 1010.38 1010.19 1010.56 1010.90 1011.76 1012.44 1013.00 1013.42 1013.38 1013.68 1014.75 1015.48 1016.57 1017.52
1016.44 1016.29 1016.17 1015.57 1015.68 1015.69 1015.90 1015.95 1015.87 1015.69 1015.56 1015.67 1015.59 1015.32 1015.11 1014.22 1011.34 1009.31 1009.18 1009.43 1009.76 1010.00 1010.25 1010.56 1010.64 1010.71 1010.50 1010.58 1010.48 1010.51 1010.41 1010.51 1010.24 1010.68 1011.26 1011.84 1012.35 1013.03 1013.72 1013.90 1014.40 1015.26 1016.00 1016.67 1017.18
1016.01 1016.03 1015.66 1015.10 1015.43 1015.50 1015.69 1015.71 1015.61 1015.52 1015.50 1015.43 1015.43 1015.25 1014.93 1012.74 1008.99 1009.05 1009.20 1009.65 1009.69 1009.77 1009.92 1010.15 1009.84 1009.87 1010.31 1010.18 1010.20 1010.22 1010.57 1010.67 1010.70 1010.99 1011.46 1012.00 1012.82 1013.22 1014.00 1014.34 1015.03 1015.63 1016.37 1016.84 1017.08
1015.61 1015.75 1015.17 1014.79 1015.11 1015.22 1015.39 1015.47 1015.40 1015.38 1015.31 1015.29 1015.28 1015.20 1014.19 1010.59 1008.61 1008.80 1008.99 1008.79 1008.92 1009.02 1009.45 1009.45 1009.45 1009.81 1010.20 1010.30 1010.15 1010.44 1010.84 1010.78 1011.13 1011.15 1011.70 1012.02 1013.15 1013.60 1014.00 1014.58 1015.43 1016.08 1016.77 1017.49 1017.56
1015.20 1015.27 1014.76 1014.54 1014.83 1014.94 1015.15 1015.23 1015.14 1015.17 1015.14 1015.14 1015.14 1015.00 1012.67 1009.03 1008.48 1008.49 1008.11 1008.08 1008.27 1008.51 1008.68 1008.61 1009.17 1009.79 1009.97 1010.22 1010.56 1011.18 1011.46 1011.59 1011.33 1011.21 1012.15 1012.43 1013.75 1014.27 1014.66 1015.10 1016.54 1017.05 1017.53 1017.93 1018.37
1014.78 1014.75 1014.40 1014.29 1014.55 1014.79 1014.99 1015.05 1015.00 1015.03 1014.94 1014.96 1015.00 1014.57 1011.40 1008.55 1008.43 1007.83 1007.74 1007.86 1007.99 1008.16 1008.31 1008.59 1009.21 1009.90 1010.26 1010.78 1011.87 1012.24 1012.27 1012.15 1011.83 1011.82 1012.36 1013.08 1014.80 1016.02 1016.09 1016.49 1017.40 1017.77 1018.25 1018.67 1018.96
1014.31 1014.27 1014.03 1014.09 1014.31 1014.71 1014.92 1014.90 1014.83 1014.83 1014.90 1014.86 1014.50 1014.08 1010.49 1009.07 1008.33 1007.82 1007.53 1007.71 1008.00 1008.12 1008.43 1008.71 1009.64 1010.38 1011.29 1011.68 1012.59 1012.62 1012.60 1012.53 1012.45 1012.75 1013.18 1014.51 1016.43 1017.15 1017.14 1017.46 1018.29 1018.88 1019.38 1019.73 1019.71
1013.78 1013.78 1013.65 1013.97 1014.22 1014.64 1014.99 1014.99 1014.95 1014.65 1014.21 1012.93 1012.30 1011.40 1009.99 1009.03 1008.47 1007.97 1007.76 1007.91 1008.38 1008.86 1009.67 1009.92 1010.97 1011.68 1011.86 1011.85 1011.91 1012.21 1012.55 1012.78 1013.04 1013.33 1014.53 1016.61 1017.68 1018.29 1018.35 1018.77 1019.58 1019.96 1020.16 1020.43 1020.30
1013.53 1013.26 1013.39 1013.87 1014.24 1014.54 1014.82 1013.87 1012.26 1011.82 1012.21 1011.57 1011.25 1010.63 1009.58 1009.09 1008.82 1008.10 1007.86 1008.46 1008.90 1009.68 1010.06 1010.95 1011.71 1011.75 1011.87 1011.97 1012.16 1012.48 1012.99 1013.53 1013.90 1014.24 1015.16 1017.29 1018.59 1019.18 1019.46 1019.91 1020.21 1020.39 1020.69 1020.68 1020.70
1013.10 1012.78 1013.35 1013.88 1014.28 1014.73 1013.83 1012.30 1011.13 1011.40 1011.64 1010.60 1010.09 1009.65 1008.87 1008.95 1008.74 1008.36 1008.22 1008.68 1009.28 1009.90 1010.70 1011.31 1011.83 1011.60 1011.71 1012.20 1012.46 1013.22 1013.62 1014.00 1014.53 1015.16 1015.96 1017.10 1019.00 1019.71 1020.11 1020.19 1020.37 1020.67 1020.71 1020.76 1020.68
1012.59 1012.58 1013.28 1014.00 1014.75 1013.22 1012.67 1010.86 1011.04 1011.31 1011.49 1010.38 1009.41 1008.32 1008.25 1008.42 1008.67 1008.36 1008.34 1008.76 1009.63 1010.44 1011.17 1011.81 1011.88 1011.96 1012.03 1012.56 1012.96 1013.62 1013.92 1014.34 1015.06 1015.87 1016.98 1017.49 1019.28 1019.88 1020.24 1020.50 1020.76 1020.95 1021.03 1020.98 1020.81
1012.11 1012.60 1013.16 1013.56 1013.15 1012.40 1011.15 1010.78 1011.10 1011.50 1011.66 1010.03 1008.74 1007.69 1008.01 1008.67 1008.84 1008.81 1008.84 1008.90 1010.02 1010.95 1011.74 1012.41 1012.21 1012.25 1012.57 1012.90 1013.00 1013.80 1014.12 1014.99 1015.82 1016.79 1017.63 1018.37 1019.17 1019.65 1020.12 1020.74 1020.75 1021.08 1021.18 1021.04 1021.07
1011.73 1012.57 1013.30 1013.78 1013.03 1011.28 1010.95 1010.87 1011.30 1012.16 1011.11 1009.72 1008.60 1008.29 1008.64 1008.91 1009.25 1009.37 1009.38 1009.62 1010.43 1011.47 1012.01 1012.58 1012.36 1012.48 1012.78 1013.06 1013.36 1013.98 1014.97 1016.19 1017.19 1018.16 1019.01 1019.01 1019.38 1019.67 1019.67 1019.31 1020.23 1020.68 1020.92 1021.07 1021.23
1011.52 1012.44 1012.95 1012.15 1011.56 1010.90 1011.02 1011.49 1012.54 1012.11 1010.82 1010.14 1009.39 1009.12 1009.26 1009.72 1010.08 1010.28 1010.89 1011.36 1011.81 1012.67 1013.55 1013.36 1013.29 1013.06 1012.98 1013.38 1013.90 1014.74 1016.21 1017.89 1019.34 1019.75 1019.95 1019.38 1019.56 1018.78 1018.60 1018.82 1019.39 1020.16 1020.72 1020.93 1021.11
1011.58 1012.39 1012.25 1011.64 1010.88 1010.90 1011.59 1012.14 1012.80 1011.73 1010.86 1009.97 1009.66 1009.79 1010.11 1010.31 1011.00 1011.39 1011.90 1012.60 1012.67 1012.94 1014.16 1014.27 1014.17 1013.71 1013.51 1013.73 1014.36 1015.40 1016.59 1018.19 1019.80 1020.79 1020.56 1019.93 1019.60 1018.49 1018.48 1018.46 1018.79 1019.66 1020.25 1020.82 1021.20
1011.93 1012.65 1012.19 1010.60 1010.59 1011.23 1012.19 1012.69 1012.39 1011.47 1010.34 1009.98 1010.06 1010.49 1010.75 1010.90 1011.34 1012.07 1012.80 1013.22 1013.32 1013.30 1013.85 1014.45 1014.47 1014.00 1013.86 1013.94 1014.57 1015.77 1017.02 1018.21 1019.98 1021.60 1021.52 1020.74 1019.84 1018.89 1018.74 1018.98 1019.36 1019.98 1020.52 1020.85 1021.30
1011.55 1012.14 1011.26 1010.40 1010.55 1011.35 1012.40 1012.44 1011.86 1010.76 1009.87 1009.63 1010.20 1010.51 1011.04 1011.41 1011.95 1012.58 1013.19 1013.60 1013.66 1013.69 1013.65 1014.54 1014.92 1014.73 1014.40 1014.39 1015.00 1015.53 1017.06 1018.58 1020.08 1021.87 1022.23 1021.36 1020.56 1019.64 1019.39 1019.39 1019.61 1020.11 1020.56 1021.17 1021.73
1011.23 1011.59 1010.83 1010.35 1010.69 1011.77 1012.74 1012.14 1011.31 1010.03 1009.54 1009.37 1009.95 1010.57 1011.14 1011.83 1012.44 1013.18 1013.76 1014.02 1013.93 1014.03 1013.98 1014.63 1015.26 1015.84 1015.29 1015.49 1015.76 1016.36 1017.40 1019.04 1020.57 1022.01 1022.76 1022.32 1020.71 1018.91 1018.81 1018.94 1019.32 1020.03 1020.62 1021.31 1022.04
1010.96 1011.19 1010.69 1010.53 1011.48 1012.69 1012.58 1011.46 1010.74 1009.76 1009.08 1009.06 1009.56 1010.33 1011.25 1012.11 1013.01 1013.60 1014.00 1014.15 1014.27 1014.33 1014.81 1015.41 1016.24 1016.88 1016.53 1016.03 1016.07 1016.40 1017.43 1018.85 1020.78 1022.51 1023.10 1022.71 1020.43 1019.07 1019.03 1018.99 1019.58 1020.33 1020.98 1021.76 1022.29
1010.58 1011.05 1010.65 1010.53 1011.76 1012.72 1012.08 1011.16 1010.55 1009.71 1009.31 1009.31 1009.87 1010.35 1011.36 1012.50 1013.54 1014.10 1014.35 1014.51 1014.51 1014.78 1015.16 1015.72 1016.99 1017.71 1017.59 1017.18 1016.61 1016.85 1017.71 1018.91 1020.31 1021.63 1022.51 1022.80 1020.32 1019.34 1019.19 1019.41 1019.93 1020.83 1021.57 1022.16 1022.63
1010.10 1011.26 1011.64 1011.55 1011.86 1011.89 1011.73 1011.20 1010.59 1009.71 1009.51 1009.56 1010.25 1010.73 1011.79 1013.12 1013.64 1014.49 1014.89 1015.05 1015.08 1015.32 1015.66 1015.99 1017.57 1018.03 1018.07 1017.70 1017.52 1017.69 1018.05 1018.88 1019.80 1021.39 1021.77 1021.06 1020.10 1019.70 1019.86 1020.13 1020.70 1021.38 1021.90 1022.47 1022.83
1009.73 1010.68 1010.68 1011.91 1012.37 1011.94 1011.22 1011.16 1010.80 1010.16 1009.85 1010.06 1010.80 1011.28 1012.05 1013.55 1014.25 1014.83 1015.24 1015.51 1015.68 1015.97 1016.40 1016.97 1018.35 1018.86 1019.01 1018.85 1018.37 1018.22 1018.35 1018.90 1019.64 1020.00 1020.57 1019.98 1020.07 1019.52 1019.58 1020.20 1020.83 1021.45 1022.18 1022.64 1022.89
1009.59 1010.22 1010.85 1011.51 1011.61 1011.96 1011.52 1011.35 1010.95 1010.73 1010.78 1011.02 1011.43 1012.24 1012.62 1013.43 1013.83 1014.75 1015.23 1015.76 1015.89 1016.64 1017.30 1018.08 1019.43 1019.99 1020.40 1020.09 1019.70 1019.15 1018.69 1018.77 1019.05 1019.40 1019.60 1019.62 1019.36 1018.90 1019.43 1020.29 1021.14 1021.60 1022.09 1022.46 1022.71
1008.96 1009.19 1009.45 1012.13 1012.27 1012.15 1011.79 1011.46 1011.25 1011.04 1011.74 1011.81 1012.06 1012.82 1013.59 1013.97 1014.35 1014.75 1015.33 1015.74 1016.19 1017.20 1018.31 1019.23 1020.37 1021.65 1022.00 1021.40 1020.57 1019.68 1018.07 1017.99 1018.06 1018.11 1018.44 1019.09 1018.44 1019.14 1019.90 1020.29 1020.77 1021.48 1021.85 1022.19 1022.48
Wind_Speed
13 13 16 14 12 16 14 13 11 10 11 12 12 12 12 13 14 3 7 12 6 4 6 6 3 3 1 2 3 3 5 3 8 12 5 4 4 4 2 4 4 4 6 9 14
14 14 17 14 10 15 16 12 11 10 10 10 11 12 11 10 3 9 11 11 7 10 5 4 1 3 0 2 2 5 4 7 5 9 11 15 16 7 5 2 4 4 9 16 14
14 14 17 14 12 13 16 13 10 10 9 10 10 10 10 7 4 8 6 13 12 9 6 5 1 2 2 2 3 4 6 6 6 2 6 6 6 2 10 2 5 12 12 12 13
14 14 16 14 13 12 14 11 10 9 8 10 10 9 9 1 3 3 3 10 10 6 6 4 4 4 3 4 3 1 4 5 2 6 6 9 7 4 1 5 10 16 19 13 13
13 13 15 12 14 12 11 10 10 8 8 9 8 8 3 2 10 1 9 10 8 6 6 5 4 5 3 4 3 2 2 3 8 8 8 8 4 7 2 5 11 13 15 16 15
13 14 13 10 11 10 9 10 9 8 7 8 7 6 1 4 3 7 10 7 6 6 7 7 7 6 3 3 5 5 5 3 4 5 5 6 3 5 1 7 11 15 13 11 13
13 14 11 8 9 8 9 9 8 8 7 6 5 2 1 13 3 4 6 7 8 7 6 6 6 3 4 4 2 4 4 5 4 2 3 6 1 2 4 10 13 13 8 5 2
13 13 10 8 8 8 9 8 7 6 5 5 4 2 8 6 3 9 4 2 5 6 4 4 7 5 2 2 7 5 6 3 3 2 1 5 6 2 7 14 8 8 7 7 4
12 12 9 7 7 8 8 7 5 5 4 1 2 2 10 9 4 5 4 2 3 4 5 3 6 4 4 6 6 6 4 2 2 1 3 3 1 9 3 8 7 7 6 6 5
11 11 8 7 7 7 6 3 4 2 2 3 4 2 5 2 4 4 1 1 1 1 5 7 6 5 5 6 5 5 3 2 3 1 6 6 4 7 6 7 7 7 7 6 7
9 9 7 7 7 7 5 2 2 2 3 8 4 3 3 8 4 1 2 2 3 9 3 5 9 3 3 3 3 3 4 2 1 3 9 5 5 8 7 8 7 7 7 7 8
9 7 5 7 7 8 2 3 5 4 4 10 6 6 7 3 2 4 3 3 4 2 1 7 4 3 4 5 6 5 6 3 2 6 8 5 8 7 7 4 4 7 6 6 7
9 5 6 7 8 4 4 7 0 3 2 3 6 5 5 6 4 4 3 3 3 3 5 6 0 3 4 5 9 5 5 2 4 3 6 4 5 6 5 6 6 5 4 5 8
8 5 7 10 3 4 5 4 1 4 5 5 3 5 4 2 2 2 1 4 4 4 5 5 3 4 6 6 4 3 0 3 4 4 3 3 3 2 3 3 1 4 5 6 6
7 8 11 9 2 4 3 3 3 4 4 4 3 1 2 5 4 3 4 5 4 4 5 1 2 5 7 1 3 1 5 5 4 5 4 4 5 4 6 5 8 5 5 6 5
7 9 11 5 2 6 3 3 5 9 4 2 4 4 4 2 2 1 5 8 4 6 7 3 2 4 2 3 3 4 6 9 6 4 3 1 4 4 7 7 5 4 5 6 6
8 12 10 2 3 2 2 5 7 5 2 3 4 3 3 2 4 4 5 6 4 6 4 6 4 5 3 4 3 7 6 3 4 4 6 3 2 7 4 5 9 9 8 7 7
8 12 8 5 2 2 4 6 2 3 5 1 4 4 4 3 4 4 3 3 5 5 4 4 4 3 5 2 4 3 5 6 5 3 4 3 4 5 4 7 9 8 7 6 5
14 2 4 4 5 2 7 5 7 6 3 6 5 5 1 2 6 5 3 2 1 1 6 4 1 2 2 2 3 2 3 4 7 2 3 2 4 5 6 5 6 8 7 8 5
5 4 3 1 5 5 7 6 4 4 1 4 5 4 4 4 4 4 1 2 2 3 2 5 4 2 2 2 5 2 5 3 4 2 3 3 4 6 5 7 7 9 8 6 6
3 4 3 2 4 6 5 6 4 6 4 5 5 4 4 5 4 2 2 1 1 2 3 3 5 5 1 3 3 2 2 6 5 4 5 1 7 5 11 12 13 8 7 8 7
4 4 3 2 5 1 5 6 3 4 2 3 5 4 5 3 4 3 4 2 3 1 3 1 6 3 2 2 2 2 3 5 7 3 1 3 8 2 7 8 8 7 7 6 6
5 3 2 5 5 2 3 1 2 2 3 2 3 3 3 5 6 2 3 1 3 2 6 5 2 4 7 7 4 2 3 5 6 4 6 6 8 3 4 6 4 8 7 7 6
4 4 4 4 1 7 5 3 2 2 2 4 4 5 5 4 5 5 3 1 1 2 4 6 3 6 8 5 3 4 4 4 6 4 4 7 5 3 3 5 6 7 7 7 6
2 3 5 4 1 3 5 6 4 2 2 5 4 3 5 5 3 4 2 2 4 1 3 4 4 2 2 3 2 2 4 6 7 6 7 5 7 7 9 8 7 7 7 6 5
5 5 3 2 6 6 3 6 6 3 3 2 6 2 2 6 7 9 7 4 5 3 3 3 2 2 2 4 5 4 6 7 5 3 7 4 9 6 4 7 7 8 8 6 5
1 2 6 3 3 6 7 6 7 6 3 3 6 5 3 1 3 4 5 7 5 6 3 3 6 4 4 4 5 7 10 10 6 6 7 7 9 6 4 8 10 9 8 7 6
Wind_Direction
291 294 294 297 300 297 292 287 287 290 293 299 303 311 317 322 312 180 238 219 194 185 144 120 143 183 162 266 174 151 70 174 174 187 148 77 93 97 309 128 38 26 132 136 127
292 297 291 290 289 295 292 283 286 285 291 295 302 309 320 329 295 254 241 200 189 157 117 167 190 164 241 248 20 82 101 223 201 171 162 166 177 140 135 52 44 50 58 111 129
288 289 286 289 289 285 287 284 281 285 292 293 296 312 313 329 304 250 311 193 177 159 123 141 119 173 229 196 186 150 193 216 253 243 91 106 113 175 114 246 204 153 135 130 148
284 285 285 290 290 280 279 279 276 278 283 289 296 314 307 271 234 285 326 168 155 152 117 144 154 172 190 218 156 285 222 224 175 168 118 133 126 99 150 228 144 152 151 149 168
281 282 280 287 287 279 276 275 270 269 279 283 299 313 335 273 252 75 87 109 120 132 161 162 151 174 183 187 136 150 340 88 107 110 111 130 144 164 242 109 109 137 153 166 177
281 280 274 280 280 274 271 264 264 258 270 285 295 315 256 262 219 140 125 145 153 150 180 172 203 205 205 254 167 166 58 84 94 116 126 125 130 124 254 133 127 155 168 177 183
284 278 277 278 268 265 259 258 256 257 260 274 284 278 243 240 189 273 209 200 174 174 190 213 180 156 148 137 129 85 60 41 38 105 106 128 71 168 146 143 157 173 163 108 92
282 275 276 270 264 259 256 254 253 255 258 262 253 241 248 247 287 300 215 279 168 208 223 202 158 180 193 124 29 66 54 78 293 95 24 97 252 20 166 152 124 123 133 104 60
279 274 273 265 254 250 246 243 247 244 232 182 137 233 266 312 272 275 206 269 184 197 213 125 129 138 53 87 40 11 155 183 77 65 116 96 64 351 41 111 117 119 111 112 70
278 270 268 258 242 232 225 201 191 138 235 207 250 285 272 316 301 307 247 346 49 3 6 43 48 63 37 71 190 196 140 231 200 164 44 42 46 345 348 106 111 101 82 76 69
275 266 263 246 222 201 149 171 62 10 229 198 196 254 299 294 272 304 323 82 36 49 52 1 71 118 221 191 180 147 134 130 265 353 82 61 40 7 19 68 92 89 94 91 72
266 261 249 222 198 184 253 213 211 194 293 220 250 280 251 218 326 300 83 78 68 115 96 33 85 221 119 99 102 79 97 67 46 5 89 90 50 33 33 52 89 113 101 103 98
254 238 224 182 158 160 217 233 82 27 196 252 187 208 224 146 200 239 98 149 117 91 63 121 143 109 91 55 72 43 107 126 154 85 64 107 34 34 21 60 84 64 112 112 136
236 201 165 151 166 177 234 242 344 145 71 286 214 270 149 159 43 253 90 132 31 112 116 79 347 105 65 71 94 106 143 110 83 87 164 41 245 93 84 52 70 142 141 140 149
210 189 167 181 255 173 237 320 121 63 86 250 201 165 79 139 166 7 341 43 129 118 98 264 61 76 67 91 76 145 59 59 85 81 79 10 83 274 133 195 207 200 174 193 176
182 180 143 278 247 246 344 53 55 46 261 184 157 163 101 43 34 26 39 41 117 68 40 59 32 59 97 61 55 117 57 38 43 66 41 269 143 238 197 192 159 184 206 195 188
176 173 170 191 216 51 71 54 47 123 313 187 154 134 112 72 54 50 30 24 94 86 23 13 355 335 47 86 54 72 63 4 5 9 219 316 116 247 237 180 169 180 194 199 191
164 155 246 251 347 56 59 55 148 232 221 153 118 78 138 133 22 42 70 67 27 78 99 127 341 10 343 81 162 69 137 152 213 195 248 348 246 251 270 201 159 170 187 173 184
131 173 262 265 175 92 79 78 209 212 203 139 65 98 95 78 119 83 60 102 49 37 125 132 313 327 71 63 110 183 55 156 107 343 56 254 293 324 44 102 136 158 167 201 192
161 176 236 18 118 77 80 206 229 217 273 125 134 149 139 143 87 84 86 322 109 27 146 193 107 25 341 90 44 118 146 67 7 127 275 297 268 232 196 190 176 184 189 159 150
104 125 262 50 80 58 155 212 260 251 215 133 158 134 138 132 99 84 148 344 17 48 74 117 102 283 32 39 164 25 59 53 104 111 158 286 263 222 197 193 189 187 180 168 162
138 112 280 84 71 41 159 186 250 270 18 76 100 102 138 124 95 118 155 172 11 254 102 55 125 121 203 266 237 179 146 132 112 213 76 143 273 331 250 205 163 182 164 138 130
128 137 319 89 130 271 257 202 242 301 37 94 103 103 82 122 100 120 120 354 355 83 163 178 22 64 353 351 343 179 118 99 106 84 197 133 261 3 50 98 127 140 122 120 122
117 98 354 53 116 145 142 163 241 294 71 73 112 87 98 71 27 144 133 16 41 88 80 90 104 155 185 205 173 174 168 154 123 121 186 226 265 261 211 151 131 126 129 135 140
60 195 177 177 249 180 120 172 177 145 73 37 48 80 137 114 77 109 123 123 45 93 55 93 129 125 76 6 336 250 194 178 190 191 171 241 213 237 212 190 167 146 142 148 157
131 129 26 80 127 122 123 192 162 118 56 55 113 82 74 147 176 189 142 182 185 58 81 16 161 126 200 358 18 288 260 230 220 194 265 265 273 204 152 120 151 165 163 174 186
185 48 103 309 109 110 191 172 198 126 40 41 148 103 61 145 90 84 87 89 110 128 113 81 125 99 256 8 351 330 226 205 197 188 162 200 233 151 171 181 178 176 182 185 194